Change the Weather History Date:

Monday, May 13, 2013

  Actual Average Record
Temperature  
Mean Temperature 43 °F 56 °F  
Max Temperature 55 °F 67 °F 82 °F (2011)
Min Temperature 30 °F 46 °F 30 °F (2013)
Degree Days  
Heating Degree Days 22    
Month to date heating degree days 88  
Since 1 July heating degree days 6410  
Cooling Degree Days 0    
Month to date cooling degree days 17  
Year to date cooling degree days 18  
Moisture  
Dew Point 25 °F    
Average Humidity 53    
Maximum Humidity 78    
Minimum Humidity 28    
Precipitation  
Precipitation 0.00 in 0.11 in 1.00 in (2004)
Month to date precipitation 0.32 1.41  
Year to date precipitation 13.50 9.68  
Snow  
Snow 0.00 in - - ()
Month to date snowfall T  
Since 1 July snowfall 43.5  
Snow Depth 0.00 in    
Sea Level Pressure  
Sea Level Pressure 30.13 in    
Wind  
Wind Speed 8 mph (West)    
Max Wind Speed 17 mph    
Max Gust Speed 24 mph    
Visibility 10 miles    
Events      
T = Trace of Precipitation, MM = Missing Value Source: NWS Daily Summary

Daily Weather History Graph

Daily Weather History Graph

Search for Another Location

Airport or City:

Trip Planner

Search our weather history database for the weather conditions in past years. The results will help you decide how hot, cold, wet, or windy it might be!

Date:

Astronomy

May. 13, 2013 Rise Set
Actual Time 6:13 AM EDT 8:52 PM EDT
Civil Twilight 5:40 AM EDT 9:25 PM EDT
Nautical Twilight 4:59 AM EDT 10:06 PM EDT
Astronomical Twilight 4:12 AM EDT 10:54 PM EDT
Moon 8:57 AM EDT (5/13) No Moon Set
Length of Visible Light 15h 44m
Length of Day
14h 38m
Waxing Crescent, 12% of the Moon is Illuminated
May 13
Waxing Crescent
May 18
First Quarter
May 25
Full
May 31
Last Quarter
Jun 8
New

Hourly Weather History & Observations

Time (EDT) Temp. Windchill Dew Point Humidity Pressure Visibility Wind Dir Wind Speed Gust Speed Precip Events Conditions
12:53 AM 32.0 °F 25.6 °F 24.1 °F 73% 30.11 in 10.0 mi West 6.9 mph - N/A   Clear
1:53 AM 30.9 °F 24.3 °F 24.1 °F 76% 30.11 in 10.0 mi West 6.9 mph - N/A   Clear
2:53 AM 30.0 °F 22.4 °F 24.1 °F 79% 30.11 in 10.0 mi West 8.1 mph - N/A   Clear
3:53 AM 30.9 °F 22.8 °F 24.1 °F 76% 30.11 in 10.0 mi West 9.2 mph - N/A   Clear
4:53 AM 30.0 °F 21.1 °F 24.1 °F 79% 30.11 in 10.0 mi West 10.4 mph - N/A   Clear
5:53 AM 30.0 °F 21.1 °F 24.1 °F 79% 30.11 in 10.0 mi West 10.4 mph - N/A   Clear
6:53 AM 30.0 °F 21.7 °F 24.1 °F 79% 30.13 in 10.0 mi West 9.2 mph - N/A   Clear
7:53 AM 36.0 °F 28.0 °F 25.0 °F 64% 30.14 in 10.0 mi WNW 11.5 mph - N/A   Clear
8:53 AM 39.9 °F 31.4 °F 27.0 °F 60% 30.16 in 10.0 mi WNW 16.1 mph 24.2 mph N/A   Clear
9:53 AM 44.1 °F 37.7 °F 27.0 °F 51% 30.17 in 10.0 mi NW 12.7 mph - N/A   Clear
10:53 AM 46.0 °F 41.0 °F 27.0 °F 47% 30.17 in 10.0 mi West 10.4 mph 18.4 mph N/A   Clear
11:53 AM 48.0 °F - 24.1 °F 39% 30.18 in 10.0 mi Variable 6.9 mph - N/A   Mostly Cloudy
12:53 PM 50.0 °F - 24.1 °F 36% 30.18 in 10.0 mi WNW 6.9 mph - N/A   Scattered Clouds
1:53 PM 50.0 °F - 23.0 °F 35% 30.18 in 10.0 mi WNW 9.2 mph 18.4 mph N/A   Mostly Cloudy
2:53 PM 52.0 °F - 21.9 °F 31% 30.17 in 10.0 mi West 11.5 mph 16.1 mph N/A   Mostly Cloudy
4:53 PM 53.1 °F - 23.0 °F 31% 30.13 in 10.0 mi SW 6.9 mph - N/A   Partly Cloudy
5:53 PM 53.1 °F - 21.9 °F 30% 30.12 in 10.0 mi West 4.6 mph - N/A   Partly Cloudy
6:53 PM 54.0 °F - 21.9 °F 29% 30.12 in 10.0 mi West 5.8 mph - N/A   Clear
7:53 PM 53.6 °F - 24.8 °F 33% 30.10 in 10.0 mi WSW 8.1 mph - N/A   Clear
8:53 PM 50.0 °F - 26.1 °F 39% 30.10 in 10.0 mi South 3.5 mph - N/A   Clear
9:53 PM 46.9 °F - 28.0 °F 48% 30.09 in 10.0 mi South 5.8 mph - N/A   Clear
10:53 PM 48.0 °F - 28.0 °F 46% 30.10 in 10.0 mi SSW 3.5 mph - N/A   Clear
11:53 PM 48.0 °F - 28.0 °F 46% 30.09 in 10.0 mi SW 8.1 mph - N/A   Clear